This is the latest recevied weather packets stored in our database for station/object N9WHM. If no packets are shown the sender has not sent any weather packets the latest 10 day(s).
| Time | Temp. | Humidity | Pressure | Rain* | Wind** | Luminosity | Snow |
|---|---|---|---|---|---|---|---|
| 1777604882 | 7.22° C | 55% | 1018.5 hPa | 0 mm | - | 0 W/m² | - |
| 1777604578 | 7.22° C | 52% | 1018.4 hPa | 0 mm | - | 0 W/m² | - |
| 1777604274 | 6.67° C | 52% | 1018.5 hPa | 0 mm | - | 0 W/m² | - |
| 1777603969 | 7.22° C | 52% | 1018.7 hPa | 0 mm | - | 0 W/m² | - |
| 1777603666 | 7.22° C | 53% | 1018.7 hPa | 0 mm | - | 0 W/m² | - |
| 1777603363 | 7.22° C | 53% | 1018.5 hPa | 0 mm | - | 0 W/m² | - |
| 1777603059 | 7.78° C | 53% | 1018.6 hPa | 0 mm | - | 0 W/m² | - |
| 1777602754 | 7.22° C | 54% | 1018.4 hPa | 0 mm | - | 0 W/m² | - |
| 1777602449 | 7.78° C | 51% | 1018.4 hPa | 0 mm | - | 0 W/m² | - |
| 1777602146 | 7.78° C | 51% | 1018.4 hPa | 0 mm | - | 0 W/m² | - |
| 1777601840 | 7.78° C | 48% | 1018.4 hPa | 0 mm | - | 0 W/m² | - |
| 1777601536 | 7.78° C | 47% | 1018.3 hPa | 0 mm | - | 0 W/m² | - |
| 1777601232 | 8.89° C | 46% | 1018.5 hPa | 0 mm | - | 0 W/m² | - |
| 1777600929 | 8.89° C | 45% | 1018.3 hPa | 0 mm | - | 0 W/m² | - |
| 1777600624 | 8.89° C | 46% | 1018.4 hPa | 0 mm | - | 0 W/m² | - |
| 1777600321 | 8.89° C | 46% | 1018.4 hPa | 0 mm | - | 0 W/m² | - |
| 1777600017 | 9.44° C | 44% | 1018.3 hPa | 0 mm | - | 0 W/m² | - |
| 1777599713 | 10° C | 44% | 1018.2 hPa | 0 mm | - | 0 W/m² | - |
| 1777599409 | 10° C | 42% | 1018.5 hPa | 0 mm | - | 0 W/m² | - |
| 1777599106 | 10.56° C | 41% | 1018.1 hPa | 0 mm | - | 1 W/m² | - |
| 1777598805 | 10.56° C | 41% | 1018.2 hPa | 0 mm | - | 2 W/m² | - |
| 1777598503 | 10.56° C | 41% | 1018.3 hPa | 0 mm | - | 3 W/m² | - |
| 1777598198 | 11.11° C | 40% | 1018.4 hPa | 0 mm | - | 5 W/m² | - |
| 1777597897 | 11.11° C | 39% | 1018.3 hPa | 0 mm | - | 8 W/m² | - |
| 1777597592 | 11.67° C | 38% | 1018.4 hPa | 0 mm | - | 11 W/m² | - |
* Rain latest hour (hover to see other rain measurements)
** Current wind speed in m/s (hover to see current wind gust speed)